| time (UTC) | temp F | wind direction | speed MPH | gust MPH | rain 1hr in | rain 24hr in | rain mn in | humidity % | barometer mb |
| 20260507031118 | 47 | 334 | 0.0 | 0.0 | 0.00 | 0.01 | 0.01 | 97 | 1017.8 |
| 20260507030615 | 47 | 334 | 0.0 | 0.0 | 0.00 | 0.01 | 0.01 | 97 | 1017.7 |
| 20260507030113 | 47 | 334 | 0.0 | 0.0 | 0.00 | 0.01 | 0.01 | 97 | 1017.6 |
| 20260507025610 | 47 | 335 | 0.0 | 0.0 | 0.00 | 0.01 | 0.01 | 96 | 1017.6 |
| 20260507025107 | 48 | 335 | 0.0 | 0.0 | 0.00 | 0.01 | 0.01 | 96 | 1017.3 |
| 20260507024605 | 48 | 336 | 0.0 | 0.0 | 0.00 | 0.01 | 0.01 | 96 | 1017.4 |
| 20260507024102 | 48 | 336 | 0.0 | 0.0 | 0.00 | 0.01 | 0.01 | 96 | 1017.4 |
| 20260507023557 | 48 | 336 | 0.0 | 0.0 | 0.00 | 0.01 | 0.01 | 95 | 1017.2 |
| 20260507023055 | 48 | 336 | 0.0 | 0.0 | 0.00 | 0.01 | 0.01 | 95 | 1017.1 |
| 20260507022551 | 49 | 337 | 0.0 | 0.0 | 0.00 | 0.01 | 0.01 | 95 | 1017.3 |
| 20260507022046 | 48 | 337 | 0.0 | 0.0 | 0.00 | 0.01 | 0.01 | 95 | 1017.1 |
| 20260507021543 | 49 | 337 | 0.0 | 0.0 | 0.00 | 0.01 | 0.01 | 94 | 1017.1 |
| 20260507021039 | 49 | 338 | 0.0 | 0.0 | 0.00 | 0.01 | 0.01 | 94 | 1017.1 |
| 20260507020538 | 49 | 338 | 0.0 | 0.0 | 0.00 | 0.01 | 0.01 | 93 | 1017.1 |
| 20260507020034 | 49 | 339 | 0.0 | 0.0 | 0.00 | 0.01 | 0.01 | 93 | 1016.8 |
| 20260507015532 | 50 | 339 | 0.0 | 0.0 | 0.00 | 0.01 | 0.01 | 93 | 1016.6 |
| 20260507015029 | 50 | 339 | 0.0 | 0.0 | 0.00 | 0.01 | 0.01 | 92 | 1016.6 |
| 20260507014526 | 50 | 340 | 0.0 | 0.0 | 0.00 | 0.01 | 0.01 | 91 | 1016.8 |
| 20260507014021 | 51 | 340 | 0.0 | 0.0 | 0.00 | 0.01 | 0.01 | 91 | 1016.8 |
| 20260507013518 | 51 | 341 | 0.0 | 0.0 | 0.00 | 0.01 | 0.01 | 89 | 1016.6 |
| 20260507013016 | 52 | 341 | 0.0 | 1.0 | 0.00 | 0.01 | 0.01 | 89 | 1016.5 |
| 20260507012513 | 52 | 342 | 0.0 | 0.0 | 0.00 | 0.01 | 0.01 | 87 | 1016.6 |
| 20260507012009 | 53 | 343 | 0.0 | 0.0 | 0.00 | 0.01 | 0.01 | 86 | 1016.3 |
| 20260507011506 | 53 | 343 | 0.0 | 0.0 | 0.00 | 0.01 | 0.01 | 85 | 1016.5 |
| 20260507011002 | 54 | 343 | 0.0 | 0.0 | 0.00 | 0.01 | 0.01 | 84 | 1016.2 |
| 20260507010456 | 54 | 344 | 0.0 | 0.0 | 0.00 | 0.01 | 0.01 | 83 | 1016.1 |
| 20260507005954 | 55 | 344 | 0.0 | 0.0 | 0.00 | 0.01 | 0.01 | 81 | 1016.2 |
| 20260507005451 | 56 | 345 | 0.0 | 0.0 | 0.00 | 0.01 | 0.01 | 79 | 1016.3 |
| 20260507004947 | 57 | 346 | 0.0 | 0.0 | 0.00 | 0.01 | 0.01 | 77 | 1016.2 |
| 20260507004444 | 57 | 349 | 0.0 | 0.0 | 0.00 | 0.01 | 0.01 | 75 | 1016.2 |
| 20260507003942 | 57 | 350 | 0.0 | 0.0 | 0.00 | 0.01 | 0.01 | 75 | 1016.5 |
| 20260507003437 | 57 | 353 | 0.0 | 0.0 | 0.00 | 0.01 | 0.01 | 76 | 1016.4 |
| 20260507002932 | 57 | 357 | 0.0 | 0.0 | 0.00 | 0.01 | 0.01 | 76 | 1016.4 |
| 20260507002428 | 57 | 3 | 0.0 | 0.0 | 0.00 | 0.01 | 0.01 | 76 | 1016.1 |
| 20260507001926 | 57 | 10 | 0.0 | 0.0 | 0.00 | 0.01 | 0.01 | 75 | 1016.2 |
| 20260507001422 | 57 | 16 | 0.0 | 0.0 | 0.00 | 0.01 | 0.01 | 74 | 1016.1 |
| 20260507000920 | 57 | 23 | 0.0 | 0.0 | 0.00 | 0.01 | 0.01 | 73 | 1016.2 |
| 20260507000415 | 58 | 29 | 0.0 | 0.0 | 0.00 | 0.01 | 0.01 | 72 | 1016.2 |
| 20260506235911 | 58 | 38 | 0.0 | 0.0 | 0.00 | 0.01 | 0.01 | 70 | 1015.9 |
| 20260506235409 | 58 | 9 | 1.0 | 1.0 | 0.00 | 0.01 | 0.01 | 70 | 1016.2 |
| 20260506234904 | 59 | 37 | 0.0 | 2.0 | 0.00 | 0.01 | 0.01 | 69 | 1016.2 |
| 20260506234402 | 59 | 337 | 0.0 | 1.0 | 0.00 | 0.01 | 0.01 | 70 | 1016.0 |
| 20260506233859 | 59 | 344 | 0.0 | 1.0 | 0.00 | 0.01 | 0.01 | 69 | 1016.1 |
| 20260506233355 | 59 | 347 | 0.0 | 0.0 | 0.00 | 0.01 | 0.01 | 70 | 1016.0 |
| 20260506232852 | 59 | 356 | 0.0 | 1.0 | 0.00 | 0.01 | 0.01 | 69 | 1016.1 |
| 20260506232348 | 59 | 7 | 0.0 | 1.0 | 0.00 | 0.01 | 0.01 | 69 | 1016.1 |
| 20260506231844 | 59 | 348 | 0.0 | 2.0 | 0.00 | 0.01 | 0.01 | 68 | 1016.0 |
| 20260506231342 | 59 | 104 | 2.0 | 2.0 | 0.00 | 0.01 | 0.01 | 68 | 1016.0 |
| 20260506230839 | 59 | 134 | 0.0 | 0.0 | 0.00 | 0.01 | 0.01 | 69 | 1015.9 |
| 20260506230336 | 59 | 2 | 0.0 | 2.0 | 0.00 | 0.01 | 0.01 | 68 | 1016.1 |
| 20260506225832 | 59 | 44 | 0.0 | 1.0 | 0.00 | 0.01 | 0.01 | 67 | 1015.9 |
| 20260506225330 | 59 | 328 | 3.0 | 3.0 | 0.00 | 0.01 | 0.01 | 66 | 1015.8 |
| 20260506224827 | 59 | 351 | 0.0 | 0.0 | 0.00 | 0.01 | 0.01 | 68 | 1015.8 |
| 20260506224324 | 59 | 359 | 2.0 | 5.0 | 0.00 | 0.01 | 0.01 | 66 | 1015.8 |
| 20260506223820 | 59 | 42 | 3.0 | 5.0 | 0.00 | 0.01 | 0.01 | 64 | 1015.8 |
| 20260506223315 | 60 | 44 | 3.0 | 5.0 | 0.00 | 0.01 | 0.01 | 65 | 1015.5 |
| 20260506222813 | 59 | 4 | 0.0 | 3.0 | 0.00 | 0.01 | 0.01 | 65 | 1015.3 |
| 20260506222308 | 60 | 63 | 3.0 | 7.0 | 0.00 | 0.01 | 0.01 | 64 | 1015.3 |
| 20260506221806 | 60 | 327 | 2.0 | 6.0 | 0.00 | 0.01 | 0.01 | 64 | 1015.1 |
| 20260506221304 | 61 | 72 | 1.0 | 6.0 | 0.00 | 0.01 | 0.01 | 67 | 1015.2 |
| 20260506220801 | 60 | 67 | 3.0 | 7.0 | 0.00 | 0.01 | 0.01 | 65 | 1015.0 |
| 20260506220256 | 60 | 337 | 1.0 | 3.0 | 0.00 | 0.01 | 0.01 | 66 | 1014.8 |
| 20260506215753 | 59 | 308 | 2.0 | 2.0 | 0.00 | 0.01 | 0.01 | 67 | 1014.9 |
| 20260506215248 | 60 | 340 | 3.0 | 7.0 | 0.00 | 0.01 | 0.01 | 66 | 1014.6 |
| 20260506214745 | 60 | 21 | 1.0 | 3.0 | 0.00 | 0.01 | 0.01 | 68 | 1014.4 |
| 20260506214242 | 60 | 6 | 3.0 | 7.0 | 0.00 | 0.01 | 0.01 | 68 | 1014.4 |
| 20260506213740 | 59 | 329 | 5.0 | 6.0 | 0.00 | 0.01 | 0.01 | 66 | 1014.6 |
| 20260506213232 | 59 | 75 | 2.0 | 6.0 | 0.00 | 0.01 | 0.01 | 66 | 1014.5 |
| 20260506212729 | 59 | 313 | 5.0 | 7.0 | 0.00 | 0.01 | 0.01 | 67 | 1014.4 |
| 20260506212224 | 59 | 40 | 2.0 | 6.0 | 0.00 | 0.01 | 0.01 | 65 | 1014.7 |
| 20260506211720 | 59 | 47 | 3.0 | 9.0 | 0.00 | 0.01 | 0.01 | 66 | 1014.7 |
| 20260506211216 | 59 | 25 | 5.0 | 7.0 | 0.00 | 0.01 | 0.01 | 65 | 1015.1 |
| 20260506210713 | 59 | 50 | 1.0 | 5.0 | 0.00 | 0.01 | 0.01 | 66 | 1015.2 |
| 20260506210210 | 59 | 321 | 4.0 | 8.0 | 0.00 | 0.01 | 0.01 | 65 | 1015.2 |
| 20260506205707 | 58 | 46 | 2.0 | 10.0 | 0.00 | 0.01 | 0.01 | 66 | 1015.1 |
| 20260506205202 | 58 | 324 | 2.0 | 6.0 | 0.00 | 0.01 | 0.01 | 65 | 1015.2 |
| 20260506204700 | 59 | 320 | 6.0 | 8.0 | 0.00 | 0.01 | 0.01 | 65 | 1015.4 |
| 20260506204156 | 58 | 59 | 2.0 | 10.0 | 0.00 | 0.01 | 0.01 | 65 | 1015.4 |
| 20260506203655 | 58 | 57 | 4.0 | 7.0 | 0.00 | 0.01 | 0.01 | 63 | 1015.3 |
| 20260506203152 | 58 | 51 | 4.0 | 11.0 | 0.00 | 0.01 | 0.01 | 63 | 1015.2 |
| 20260506202650 | 59 | 35 | 5.0 | 7.0 | 0.00 | 0.01 | 0.01 | 63 | 1015.3 |
| 20260506202145 | 59 | 320 | 6.0 | 8.0 | 0.00 | 0.01 | 0.01 | 62 | 1015.4 |
| 20260506201642 | 59 | 51 | 5.0 | 9.0 | 0.00 | 0.01 | 0.01 | 62 | 1015.7 |
| 20260506201139 | 59 | 82 | 3.0 | 8.0 | 0.00 | 0.01 | 0.01 | 62 | 1015.9 |
| 20260506200636 | 59 | 0 | 3.0 | 8.0 | 0.00 | 0.01 | 0.01 | 61 | 1015.9 |
| 20260506200132 | 60 | 53 | 6.0 | 15.0 | 0.00 | 0.01 | 0.01 | 60 | 1016.0 |
| 20260506195629 | 60 | 25 | 6.0 | 10.0 | 0.00 | 0.01 | 0.01 | 60 | 1016.0 |
| 20260506195125 | 59 | 113 | 1.0 | 6.0 | 0.00 | 0.01 | 0.01 | 64 | 1016.3 |
| 20260506194623 | 59 | 350 | 4.0 | 11.0 | 0.00 | 0.01 | 0.01 | 61 | 1016.4 |
| 20260506194119 | 60 | 77 | 3.0 | 3.0 | 0.00 | 0.01 | 0.01 | 66 | 1016.1 |
| 20260506193617 | 60 | 358 | 4.0 | 7.0 | 0.00 | 0.01 | 0.01 | 67 | 1016.0 |
| 20260506193114 | 59 | 57 | 7.0 | 9.0 | 0.00 | 0.01 | 0.01 | 67 | 1016.3 |
| 20260506192611 | 59 | 34 | 4.0 | 7.0 | 0.00 | 0.01 | 0.01 | 67 | 1016.4 |
| 20260506192107 | 58 | 28 | 2.0 | 10.0 | 0.00 | 0.01 | 0.01 | 69 | 1016.4 |
| 20260506191603 | 58 | 47 | 5.0 | 9.0 | 0.00 | 0.01 | 0.01 | 66 | 1016.4 |
| 20260506191059 | 58 | 33 | 1.0 | 5.0 | 0.00 | 0.01 | 0.01 | 68 | 1017.0 |
| 20260506190557 | 58 | 61 | 3.0 | 6.0 | 0.00 | 0.01 | 0.01 | 70 | 1016.8 |
| 20260506190054 | 58 | 42 | 3.0 | 8.0 | 0.00 | 0.01 | 0.01 | 70 | 1017.1 |
| 20260506185551 | 57 | 65 | 2.0 | 7.0 | 0.00 | 0.01 | 0.01 | 71 | 1016.9 |
| 20260506185047 | 57 | 332 | 3.0 | 5.0 | 0.00 | 0.01 | 0.01 | 72 | 1017.0 |
| 20260506184545 | 58 | 12 | 1.0 | 8.0 | 0.00 | 0.01 | 0.01 | 70 | 1017.1 |
| 20260506184042 | 56 | 332 | 4.0 | 8.0 | 0.00 | 0.01 | 0.01 | 73 | 1016.8 |
| 20260506183538 | 56 | 27 | 3.0 | 6.0 | 0.00 | 0.01 | 0.01 | 72 | 1017.0 |
| 20260506183034 | 57 | 20 | 3.0 | 11.0 | 0.00 | 0.01 | 0.01 | 71 | 1016.9 |
| 20260506182532 | 57 | 353 | 4.0 | 11.0 | 0.00 | 0.01 | 0.01 | 71 | 1016.8 |
| 20260506182029 | 57 | 333 | 4.0 | 8.0 | 0.00 | 0.01 | 0.01 | 72 | 1016.9 |
| 20260506181527 | 56 | 303 | 4.0 | 7.0 | 0.00 | 0.01 | 0.01 | 73 | 1017.0 |
| 20260506181023 | 56 | 347 | 1.0 | 5.0 | 0.00 | 0.01 | 0.01 | 74 | 1017.2 |
| 20260506180520 | 57 | 353 | 3.0 | 6.0 | 0.00 | 0.01 | 0.01 | 72 | 1017.2 |
| 20260506180017 | 57 | 38 | 5.0 | 8.0 | 0.00 | 0.01 | 0.01 | 68 | 1017.1 |
| 20260506175513 | 57 | 45 | 5.0 | 8.0 | 0.00 | 0.01 | 0.01 | 69 | 1017.2 |
| 20260506175010 | 55 | 33 | 3.0 | 5.0 | 0.00 | 0.01 | 0.01 | 71 | 1017.3 |
| 20260506174508 | 56 | 22 | 4.0 | 6.0 | 0.00 | 0.01 | 0.01 | 71 | 1017.4 |
| 20260506174004 | 56 | 334 | 2.0 | 8.0 | 0.00 | 0.01 | 0.01 | 71 | 1017.2 |
| 20260506173502 | 57 | 355 | 7.0 | 9.0 | 0.00 | 0.01 | 0.01 | 70 | 1017.6 |
| 20260506172958 | 57 | 51 | 5.0 | 8.0 | 0.00 | 0.01 | 0.01 | 72 | 1017.4 |
| 20260506172456 | 57 | 106 | 4.0 | 6.0 | 0.00 | 0.01 | 0.01 | 69 | 1017.7 |
| 20260506171952 | 57 | 0 | 0.0 | 5.0 | 0.00 | 0.01 | 0.01 | 72 | 1017.9 |
| 20260506171449 | 56 | 331 | 2.0 | 5.0 | 0.00 | 0.01 | 0.01 | 73 | 1018.2 |
| 20260506170947 | 55 | 82 | 2.0 | 6.0 | 0.00 | 0.01 | 0.01 | 71 | 1017.8 |
| 20260506170443 | 55 | 25 | 4.0 | 5.0 | 0.00 | 0.01 | 0.01 | 72 | 1018.1 |
| 20260506165936 | 55 | 23 | 0.0 | 3.0 | 0.00 | 0.01 | 0.01 | 74 | 1018.2 |
| 20260506165434 | 54 | 17 | 2.0 | 3.0 | 0.00 | 0.01 | 0.01 | 75 | 1017.9 |
| 20260506164924 | 54 | 44 | 2.0 | 2.0 | 0.00 | 0.01 | 0.01 | 75 | 1018.0 |
| 20260506164421 | 54 | 58 | 0.0 | 3.0 | 0.00 | 0.01 | 0.01 | 74 | 1018.1 |
| 20260506163919 | 54 | 28 | 0.0 | 3.0 | 0.00 | 0.01 | 0.01 | 75 | 1018.0 |
| 20260506163413 | 53 | 53 | 2.0 | 3.0 | 0.00 | 0.01 | 0.01 | 75 | 1017.8 |
| 20260506162908 | 53 | 108 | 3.0 | 7.0 | 0.00 | 0.01 | 0.01 | 74 | 1017.8 |
| 20260506162406 | 53 | 93 | 2.0 | 6.0 | 0.00 | 0.01 | 0.01 | 73 | 1017.8 |
| 20260506161858 | 54 | 126 | 9.0 | 10.0 | 0.00 | 0.01 | 0.01 | 72 | 1017.4 |
| 20260506161356 | 55 | 13 | 2.0 | 7.0 | 0.00 | 0.01 | 0.01 | 72 | 1017.5 |
| 20260506160853 | 55 | 72 | 3.0 | 6.0 | 0.00 | 0.01 | 0.01 | 73 | 1017.2 |
| 20260506160350 | 54 | 39 | 6.0 | 7.0 | 0.00 | 0.01 | 0.01 | 74 | 1017.0 |
| 20260506155848 | 53 | 9 | 1.0 | 7.0 | 0.00 | 0.01 | 0.01 | 74 | 1017.3 |
| 20260506155345 | 53 | 76 | 8.0 | 10.0 | 0.00 | 0.01 | 0.01 | 75 | 1016.9 |
| 20260506153502 | 51 | 31 | 5.0 | 9.0 | 0.00 | 0.01 | 0.01 | 78 | 1016.4 |
| 20260506153000 | 51 | 26 | 3.0 | 6.0 | 0.00 | 0.01 | 0.01 | 79 | 1016.4 |
| 20260506152456 | 51 | 36 | 3.0 | 3.0 | 0.00 | 0.01 | 0.01 | 80 | 1016.5 |
| 20260506151954 | 51 | 27 | 3.0 | 9.0 | 0.00 | 0.01 | 0.01 | 80 | 1016.5 |
| 20260506151452 | 50 | 42 | 3.0 | 5.0 | 0.00 | 0.01 | 0.01 | 81 | 1016.6 |
| 20260506150949 | 50 | 84 | 3.0 | 6.0 | 0.00 | 0.01 | 0.01 | 80 | 1016.6 |
| 20260506150445 | 51 | 45 | 5.0 | 8.0 | 0.00 | 0.01 | 0.01 | 80 | 1016.9 |
| 20260506145942 | 51 | 342 | 2.0 | 6.0 | 0.00 | 0.01 | 0.01 | 81 | 1017.0 |
| 20260506145438 | 50 | 338 | 2.0 | 7.0 | 0.00 | 0.01 | 0.01 | 81 | 1016.6 |
| 20260506144936 | 50 | 41 | 6.0 | 9.0 | 0.00 | 0.01 | 0.01 | 80 | 1016.6 |
| 20260506144432 | 50 | 41 | 4.0 | 7.0 | 0.00 | 0.01 | 0.01 | 80 | 1016.6 |
| 20260506143931 | 50 | 25 | 0.0 | 7.0 | 0.00 | 0.01 | 0.01 | 81 | 1016.5 |
| 20260506143428 | 50 | 2 | 5.0 | 6.0 | 0.00 | 0.01 | 0.01 | 81 | 1016.4 |
| 20260506142926 | 50 | 54 | 3.0 | 9.0 | 0.00 | 0.01 | 0.01 | 80 | 1016.6 |
| 20260506142424 | 50 | 73 | 3.0 | 11.0 | 0.00 | 0.01 | 0.01 | 81 | 1016.4 |
| 20260506141921 | 50 | 104 | 8.0 | 14.0 | 0.00 | 0.01 | 0.01 | 81 | 1016.4 |
| 20260506141419 | 50 | 31 | 4.0 | 7.0 | 0.00 | 0.01 | 0.01 | 82 | 1016.2 |
| 20260506140918 | 50 | 69 | 4.0 | 8.0 | 0.00 | 0.01 | 0.01 | 82 | 1016.3 |
| 20260506140414 | 49 | 69 | 5.0 | 7.0 | 0.00 | 0.01 | 0.01 | 82 | 1016.0 |
| 20260506135911 | 49 | 54 | 5.0 | 7.0 | 0.00 | 0.01 | 0.01 | 83 | 1016.1 |
| 20260506135408 | 49 | 41 | 3.0 | 8.0 | 0.00 | 0.01 | 0.01 | 82 | 1016.0 |
| 20260506134904 | 49 | 50 | 1.0 | 6.0 | 0.00 | 0.01 | 0.01 | 83 | 1016.0 |
| 20260506134400 | 49 | 32 | 3.0 | 9.0 | 0.00 | 0.01 | 0.01 | 83 | 1015.9 |
| 20260506133857 | 49 | 34 | 6.0 | 10.0 | 0.00 | 0.01 | 0.01 | 82 | 1016.1 |
| 20260506133354 | 49 | 291 | 3.0 | 9.0 | 0.00 | 0.01 | 0.01 | 82 | 1016.1 |
| 20260506132850 | 49 | 22 | 3.0 | 11.0 | 0.00 | 0.01 | 0.01 | 82 | 1016.1 |
| 20260506132348 | 49 | 328 | 2.0 | 7.0 | 0.00 | 0.01 | 0.01 | 82 | 1016.0 |
| 20260506131846 | 49 | 5 | 3.0 | 6.0 | 0.00 | 0.01 | 0.01 | 82 | 1016.4 |
| 20260506131342 | 49 | 6 | 6.0 | 9.0 | 0.00 | 0.01 | 0.01 | 82 | 1016.3 |
| 20260506130839 | 49 | 33 | 1.0 | 8.0 | 0.00 | 0.01 | 0.01 | 83 | 1016.5 |
| 20260506130335 | 48 | 9 | 0.0 | 5.0 | 0.00 | 0.01 | 0.01 | 83 | 1016.6 |
| 20260506125833 | 48 | 54 | 1.0 | 3.0 | 0.00 | 0.01 | 0.01 | 84 | 1016.4 |
| 20260506125332 | 48 | 17 | 1.0 | 8.0 | 0.00 | 0.01 | 0.01 | 84 | 1016.6 |
| 20260506124830 | 48 | 43 | 3.0 | 8.0 | 0.00 | 0.01 | 0.01 | 84 | 1016.4 |
| 20260506124326 | 48 | 30 | 2.0 | 10.0 | 0.00 | 0.01 | 0.01 | 85 | 1016.2 |
| 20260506123824 | 48 | 9 | 3.0 | 3.0 | 0.00 | 0.01 | 0.01 | 85 | 1016.0 |
| 20260506123322 | 48 | 338 | 2.0 | 7.0 | 0.00 | 0.01 | 0.01 | 85 | 1016.2 |
| 20260506122819 | 48 | 15 | 3.0 | 6.0 | 0.00 | 0.01 | 0.01 | 85 | 1015.8 |
| 20260506122316 | 48 | 359 | 1.0 | 5.0 | 0.00 | 0.01 | 0.01 | 85 | 1015.9 |
| 20260506121814 | 48 | 8 | 4.0 | 9.0 | 0.00 | 0.01 | 0.01 | 85 | 1015.6 |
| 20260506121311 | 48 | 13 | 2.0 | 8.0 | 0.00 | 0.01 | 0.01 | 85 | 1015.4 |
| 20260506120808 | 48 | 316 | 4.0 | 7.0 | 0.00 | 0.01 | 0.01 | 86 | 1015.2 |
| 20260506120306 | 48 | 37 | 2.0 | 7.0 | 0.00 | 0.01 | 0.01 | 86 | 1015.2 |
| 20260506115803 | 48 | 42 | 4.0 | 7.0 | 0.00 | 0.01 | 0.01 | 86 | 1015.1 |
| 20260506115306 | 48 | 336 | 3.0 | 7.0 | 0.00 | 0.01 | 0.01 | 86 | 1015.1 |
| 20260506114759 | 48 | 44 | 1.0 | 2.0 | 0.00 | 0.01 | 0.01 | 85 | 1015.1 |
| 20260506114256 | 48 | 348 | 2.0 | 5.0 | 0.00 | 0.01 | 0.01 | 83 | 1015.2 |
| 20260506113755 | 48 | 34 | 1.0 | 3.0 | 0.00 | 0.01 | 0.01 | 83 | 1014.7 |
| 20260506113252 | 48 | 20 | 2.0 | 9.0 | 0.00 | 0.01 | 0.01 | 83 | 1014.6 |
| 20260506112748 | 48 | 23 | 2.0 | 5.0 | 0.00 | 0.01 | 0.01 | 83 | 1014.8 |
| 20260506112246 | 48 | 50 | 2.0 | 3.0 | 0.00 | 0.01 | 0.01 | 82 | 1014.7 |
| 20260506111743 | 48 | 20 | 2.0 | 6.0 | 0.00 | 0.01 | 0.01 | 82 | 1014.5 |
| 20260506111241 | 48 | 288 | 4.0 | 7.0 | 0.00 | 0.01 | 0.01 | 82 | 1014.2 |
| 20260506110738 | 48 | 15 | 3.0 | 11.0 | 0.00 | 0.01 | 0.01 | 82 | 1014.3 |
| 20260506110236 | 48 | 47 | 1.0 | 5.0 | 0.00 | 0.01 | 0.01 | 83 | 1014.2 |
| 20260506105732 | 48 | 1 | 8.0 | 11.0 | 0.00 | 0.01 | 0.01 | 82 | 1014.3 |
| 20260506105229 | 48 | 7 | 2.0 | 8.0 | 0.00 | 0.01 | 0.01 | 83 | 1014.0 |
| 20260506104727 | 48 | 340 | 3.0 | 7.0 | 0.00 | 0.01 | 0.01 | 82 | 1014.0 |
| 20260506104224 | 48 | 28 | 2.0 | 6.0 | 0.00 | 0.01 | 0.01 | 82 | 1014.1 |
| 20260506103721 | 49 | 60 | 2.0 | 5.0 | 0.00 | 0.01 | 0.01 | 82 | 1014.1 |
| 20260506103218 | 49 | 319 | 3.0 | 8.0 | 0.00 | 0.01 | 0.01 | 82 | 1013.6 |
| 20260506102716 | 49 | 353 | 1.0 | 3.0 | 0.00 | 0.01 | 0.01 | 82 | 1013.6 |
| 20260506102214 | 49 | 344 | 2.0 | 6.0 | 0.00 | 0.01 | 0.01 | 82 | 1013.4 |
| 20260506101710 | 49 | 317 | 4.0 | 7.0 | 0.00 | 0.01 | 0.01 | 81 | 1013.2 |
| 20260506101207 | 49 | 27 | 3.0 | 5.0 | 0.00 | 0.01 | 0.01 | 82 | 1013.2 |
| 20260506100705 | 49 | 45 | 5.0 | 9.0 | 0.00 | 0.01 | 0.01 | 81 | 1013.1 |
| 20260506100203 | 48 | 296 | 4.0 | 11.0 | 0.00 | 0.01 | 0.01 | 82 | 1012.9 |
| 20260506095701 | 49 | 18 | 2.0 | 8.0 | 0.00 | 0.01 | 0.01 | 83 | 1012.9 |
| 20260506095158 | 48 | 348 | 4.0 | 11.0 | 0.00 | 0.01 | 0.01 | 84 | 1012.5 |
| 20260506094655 | 48 | 304 | 4.0 | 9.0 | 0.00 | 0.01 | 0.01 | 84 | 1012.6 |
| 20260506094153 | 48 | 107 | 2.0 | 5.0 | 0.00 | 0.01 | 0.01 | 85 | 1012.6 |
| 20260506093651 | 48 | 353 | 3.0 | 8.0 | 0.00 | 0.01 | 0.01 | 86 | 1012.2 |
| 20260506093148 | 48 | 112 | 5.0 | 9.0 | 0.00 | 0.01 | 0.01 | 87 | 1012.2 |
| 20260506092646 | 48 | 70 | 2.0 | 10.0 | 0.00 | 0.01 | 0.01 | 88 | 1011.9 |
| 20260506092143 | 48 | 3 | 1.0 | 6.0 | 0.00 | 0.01 | 0.01 | 88 | 1011.7 |
| 20260506091640 | 48 | 42 | 2.0 | 7.0 | 0.00 | 0.01 | 0.01 | 89 | 1011.7 |
| 20260506091137 | 48 | 34 | 4.0 | 7.0 | 0.00 | 0.01 | 0.01 | 90 | 1011.7 |
| 20260506090636 | 48 | 67 | 3.0 | 7.0 | 0.00 | 0.01 | 0.01 | 91 | 1012.0 |
| 20260506090132 | 48 | 27 | 3.0 | 8.0 | 0.00 | 0.01 | 0.01 | 92 | 1011.9 |
| 20260506085629 | 48 | 41 | 4.0 | 7.0 | 0.00 | 0.01 | 0.01 | 92 | 1012.1 |
| 20260506085125 | 48 | 55 | 0.0 | 5.0 | 0.00 | 0.01 | 0.01 | 92 | 1012.0 |
| 20260506084622 | 48 | 63 | 3.0 | 5.0 | 0.00 | 0.01 | 0.01 | 92 | 1012.2 |
| 20260506084119 | 48 | 30 | 3.0 | 8.0 | 0.00 | 0.01 | 0.01 | 92 | 1012.1 |
| 20260506083616 | 48 | 334 | 3.0 | 7.0 | 0.00 | 0.01 | 0.01 | 93 | 1012.1 |
| 20260506083113 | 48 | 4 | 3.0 | 3.0 | 0.00 | 0.01 | 0.01 | 93 | 1011.9 |
| 20260506082610 | 48 | 49 | 2.0 | 3.0 | 0.00 | 0.01 | 0.01 | 93 | 1012.1 |
| 20260506082105 | 48 | 340 | 2.0 | 8.0 | 0.00 | 0.01 | 0.01 | 93 | 1012.0 |
| 20260506081604 | 48 | 39 | 3.0 | 9.0 | 0.00 | 0.01 | 0.01 | 93 | 1011.7 |
| 20260506081101 | 48 | 3 | 3.0 | 10.0 | 0.00 | 0.01 | 0.01 | 93 | 1011.8 |
| 20260506080559 | 48 | 57 | 3.0 | 7.0 | 0.00 | 0.01 | 0.01 | 93 | 1011.8 |
| 20260506073039 | 47 | 42 | 3.0 | 6.0 | 0.00 | 0.01 | 0.01 | 94 | 1011.6 |
| 20260506072536 | 47 | 345 | 7.0 | 10.0 | 0.00 | 0.01 | 0.01 | 94 | 1011.4 |
| 20260506072034 | 47 | 30 | 5.0 | 9.0 | 0.00 | 0.01 | 0.01 | 94 | 1011.2 |
| 20260506071531 | 47 | 19 | 4.0 | 10.0 | 0.00 | 0.01 | 0.01 | 94 | 1011.5 |
| 20260506071028 | 47 | 304 | 6.0 | 8.0 | 0.00 | 0.01 | 0.01 | 95 | 1011.3 |
| 20260506070526 | 47 | 31 | 0.0 | 5.0 | 0.00 | 0.01 | 0.01 | 95 | 1011.8 |
| 20260506062503 | 47 | 20 | 4.0 | 7.0 | 0.05 | 0.01 | 0.01 | 97 | 1011.6 |
| 20260506061959 | 47 | 32 | 3.0 | 8.0 | 0.05 | 0.01 | 0.01 | 97 | 1011.3 |
| 20260506061455 | 47 | 345 | 2.0 | 5.0 | 0.00 | 0.00 | 0.00 | 97 | 1011.6 |
| 20260506060953 | 48 | 60 | 1.0 | 10.0 | 0.00 | 0.00 | 0.00 | 97 | 1011.4 |
| 20260506060451 | 48 | 314 | 3.0 | 8.0 | 0.00 | 0.00 | 0.00 | 97 | 1011.5 |
| 20260506050920 | 49 | 17 | 3.0 | 6.0 | 0.00 | 0.00 | 0.00 | 95 | 1011.6 |
| 20260506050418 | 49 | 13 | 3.0 | 7.0 | 0.00 | 0.00 | 0.00 | 95 | 1011.3 |
| 20260506044908 | 49 | 27 | 1.0 | 10.0 | 0.00 | 0.13 | 0.13 | 95 | 1011.4 |
| 20260506044406 | 49 | 333 | 3.0 | 6.0 | 0.00 | 0.13 | 0.13 | 94 | 1011.4 |
| 20260506043903 | 49 | 8 | 1.0 | 5.0 | 0.00 | 0.13 | 0.13 | 94 | 1011.3 |
| 20260506043400 | 49 | 36 | 3.0 | 5.0 | 0.00 | 0.13 | 0.13 | 94 | 1011.2 |
| 20260506042858 | 49 | 35 | 1.0 | 9.0 | 0.00 | 0.13 | 0.13 | 94 | 1011.1 |
| 20260506042357 | 49 | 330 | 3.0 | 9.0 | 0.00 | 0.13 | 0.13 | 94 | 1011.3 |
| 20260506041855 | 49 | 340 | 2.0 | 7.0 | 0.00 | 0.13 | 0.13 | 94 | 1011.1 |
| 20260506041354 | 49 | 75 | 4.0 | 9.0 | 0.00 | 0.13 | 0.13 | 94 | 1011.3 |
| 20260506040849 | 49 | 308 | 2.0 | 3.0 | 0.00 | 0.13 | 0.13 | 94 | 1011.3 |
| 20260506040347 | 49 | 32 | 1.0 | 3.0 | 0.00 | 0.13 | 0.13 | 94 | 1010.9 |
| 20260506035843 | 49 | 104 | 1.0 | 7.0 | 0.00 | 0.13 | 0.13 | 94 | 1010.9 |
| 20260506035340 | 49 | 280 | 2.0 | 3.0 | 0.00 | 0.13 | 0.13 | 94 | 1010.7 |
| 20260506034837 | 49 | 333 | 4.0 | 7.0 | 0.00 | 0.13 | 0.13 | 94 | 1010.9 |
| 20260506034334 | 49 | 316 | 2.0 | 7.0 | 0.00 | 0.13 | 0.13 | 94 | 1010.8 |
| 20260506033831 | 49 | 25 | 3.0 | 10.0 | 0.00 | 0.13 | 0.13 | 94 | 1010.8 |
| 20260506033328 | 49 | 350 | 5.0 | 11.0 | 0.00 | 0.13 | 0.13 | 95 | 1010.5 |
| 20260506032825 | 49 | 42 | 3.0 | 10.0 | 0.00 | 0.13 | 0.13 | 95 | 1010.8 |
| 20260506032322 | 49 | 31 | 2.0 | 7.0 | 0.00 | 0.13 | 0.13 | 95 | 1010.7 |
| 20260506031819 | 49 | 297 | 2.0 | 3.0 | 0.00 | 0.13 | 0.13 | 95 | 1010.5 |